Hourly Data Report for June 08, 2012

All times are specified in Local Standard Time (LST). Add 1 hour to adjust for Daylight Saving Time where and when it is observed.

VICTORIA HARTLAND CS
BRITISH COLUMBIA

48°32'01.800" N
123°27'32.900" W
154.10 m
1018FJ5

Download Data

Hourly Data (June 2012)
Hourly Data Report for June 8, 2012
Temp Definition
°C
Dew Point Temp Definition
°C
Rel Hum Definition
%
Wind Dir Definition
10's deg

Wind Spd Definition
km/h
Visibility Definition
km
Stn Press Definition
kPa
Hmdx Definition


Wind Chill Definition


Weather Definition


TIME
00:00 7.7 6.3 91   0   99.53     LegendNANA
01:00 7.6 6.3 91   0   99.53     LegendNANA
02:00 7.1 5.8 91   0   99.53     LegendNANA
03:00 7.2 5.9 91   0   99.53     LegendNANA
04:00 7.1 5.8 91 31 2   99.53     LegendNANA
05:00 7.4 5.6 88 33 7   99.53     LegendNANA
06:00 7.7 6.0 89 35 7   99.54     LegendNANA
07:00 7.9 6.3 90 36 7   99.55     LegendNANA
08:00 8.6 6.8 88 34 6   99.57     LegendNANA
09:00 9.1 6.3 83 1 7   99.59     LegendNANA
10:00 9.9 6.1 77 3 6   99.60     LegendNANA
11:00 10.8 5.9 72 4 6   99.59     LegendNANA
12:00 11.7 5.0 63 12 6   99.64     LegendNANA
13:00 12.1 4.4 59 9 6   99.65     LegendNANA
14:00 12.8 5.2 60 30 7   99.67     LegendNANA
15:00 13.1 4.1 54 35 9   99.70     LegendNANA
16:00 12.9 4.0 55 31 9   99.71     LegendNANA
17:00 12.5 5.6 63 20 2   99.72     LegendNANA
18:00 11.8 6.2 69   0   99.74     LegendNANA
19:00 10.3 6.9 79   0   99.76     LegendNANA
20:00 8.7 5.5 80   0   99.78     LegendNANA
21:00 8.4 5.5 82   0   99.83     LegendNANA
22:00 7.7 5.4 85   0   99.84     LegendNANA
23:00 9.2 4.8 74 28 7   99.84     LegendNANA

Notes on Data Quality.

Legend

  • E = Estimated
  • M = Missing
  • NA = Not Available
  • ‡ = Partner data that is not subject to review by the National Climate Archives
Date modified: